Location: *
(43.6428°N, 11.5461°E)
Time: 12:57:41
(UTC+00:00)

Okean-O - Pass Details

Date: 21 October 2019
Orbit: 639 x 641 km, 98.2° (Epoch: 20 November)

Event Time Altitude Azimuth Distance (km) Brightness Sun altitude
Rises 16:56:17 0° 166° (SSE) 2,932 6.0 -7.0°
Reaches altitude 10° 16:58:29 10° 167° (SSE) 2,028 5.2 -7.4°
Maximum altitude 17:02:54 85° 256° (WSW) 650 2.7 -8.2°
Drops below altitude 10° 17:07:22 10° 346° (NNW) 2,043 5.3 -9.0°
Sets 17:09:35 0° 347° (NNW) 2,957 6.1 -9.4°
